Location: Alto Pass Reservoir
(37.5801°N, 89.3084°W)
Time: 10:09:15
(UTC+00:00)

Cosmos 1666 - Pass Details

Date: 07 July 2022
Orbit: 489 x 511 km, 82.5° (Epoch: 07 August)

Event Time Altitude Azimuth Distance (km) Brightness Sun altitude
Exits shadow 09:11:15 28° 248° (WSW) 974 3.6 -15.2°
Maximum altitude 09:12:17 33° 281° (WNW) 865 3.5 -15.1°
Drops below altitude 10° 09:15:41 10° 347° (NNW) 1,702 5.7 -14.6°
Sets 09:17:57 0° 357° (N) 2,586 6.9 -14.3°
